Wind_Speed
25 25 26 26 27 27 27 29 29 30 31 33 34 34 34 34 35 37 38 38 38 39 40 40 41 41 41 42 42 42 41 41 41 42 43 43 42 42
25 25 25 25 26 27 27 28 28 29 30 32 33 34 35 36 36 36 37 37 37 38 38 39 40 41 42 42 42 43 43 42 42 43 43 43 43 43
24 24 24 24 25 26 26 27 28 29 30 31 32 33 34 35 36 35 35 36 37 37 38 38 39 40 41 41 42 42 43 43 43 43 43 44 44 44
23 23 23 24 25 25 26 28 28 28 29 29 30 31 32 32 33 35 36 36 37 37 38 38 38 38 39 40 41 41 42 43 43 43 43 44 43 43
22 22 23 24 25 26 26 27 26 26 27 28 29 30 30 31 32 32 33 34 36 36 37 37 37 38 38 39 40 41 41 42 43 43 43 43 43 43
22 22 23 24 25 26 26 25 25 25 26 27 27 27 28 29 30 31 31 32 33 34 36 36 36 37 38 38 39 40 41 42 42 43 43 44 44 43
22 22 23 23 24 25 26 26 26 25 25 25 25 25 25 27 28 29 29 30 31 32 33 34 35 36 37 38 39 39 40 41 42 43 44 45 45 45
22 22 22 22 24 24 25 25 25 25 25 24 25 25 25 25 25 27 28 29 30 31 32 32 34 35 37 37 38 39 40 41 42 43 44 45 45 46
21 21 21 22 23 24 25 25 25 25 25 25 25 25 25 25 25 26 27 28 28 29 30 31 33 34 35 36 38 39 41 42 43 43 44 44 45 46
21 22 22 23 24 24 25 25 25 25 25 24 24 25 25 25 25 25 25 26 27 28 29 30 32 34 35 37 38 39 40 41 41 42 43 44 44 44
21 22 22 23 24 24 25 25 25 25 25 25 25 24 24 24 24 24 24 24 25 26 27 30 32 34 35 37 38 38 39 40 41 41 42 43 44 45
22 23 23 24 24 25 25 25 24 24 24 24 24 24 24 24 24 25 25 26 26 26 26 27 29 31 33 34 36 37 38 39 39 39 40 41 42 43
23 24 24 24 25 25 24 25 25 24 23 23 23 22 22 22 23 23 23 24 25 26 26 27 28 29 31 32 33 34 36 38 39 39 38 39 40 41
23 23 24 24 24 24 24 24 24 23 23 22 21 20 20 20 21 22 22 22 22 23 24 25 26 27 28 30 30 31 33 35 36 37 38 38 39 39
23 23 23 23 24 24 24 23 23 23 22 21 20 19 19 19 20 20 20 21 21 22 22 23 24 25 26 27 29 30 31 32 33 34 36 38 39 39
24 24 24 23 24 24 24 24 23 21 21 20 19 18 18 18 19 19 19 20 21 21 22 23 23 24 24 25 26 27 28 29 30 32 32 33 35 36
24 24 24 23 24 24 24 23 22 21 20 19 18 18 18 18 18 18 19 19 20 20 19 20 21 22 22 23 23 24 25 27 28 29 30 31 32 33
24 24 23 23 24 24 25 24 23 21 20 20 19 18 18 18 18 18 19 19 18 18 18 19 19 19 19 20 20 21 21 22 24 26 27 27 28 30
24 24 24 24 24 24 25 25 23 22 20 19 19 19 19 19 19 19 19 18 18 17 17 18 18 18 18 17 17 17 18 19 19 21 22 24 26 27
24 25 25 25 25 25 25 25 24 22 20 19 19 19 19 19 19 20 19 18 18 17 17 17 17 17 16 16 16 17 17 18 18 19 20 21 22 24
24 25 26 26 26 26 26 25 24 22 21 20 19 19 19 19 20 20 19 18 18 17 16 15 15 15 15 16 16 16 17 17 17 18 19 20 21 22
25 25 26 26 27 27 27 26 24 22 21 20 20 20 19 19 19 19 18 17 17 16 15 14 14 14 13 14 14 15 15 15 16 17 18 19 20 21
26 26 26 27 28 28 28 27 25 23 22 21 21 20 20 20 20 19 18 17 16 15 14 13 13 12 12 12 12 13 14 15 16 17 18 19 20 21
Wind_Direction
294 292 290 289 287 286 285 281 278 275 272 271 272 271 268 265 263 261 259 257 255 253 253 253 252 252 251 250 250 248 247 246 246 247 246 245 245 243
297 294 292 290 289 289 287 283 280 277 275 273 273 271 270 268 264 262 260 259 256 254 254 253 253 252 251 250 250 248 247 247 247 246 245 245 245 245
298 294 293 291 290 289 289 287 284 281 278 277 275 273 271 269 267 264 261 259 257 256 254 253 253 252 251 250 250 249 247 247 248 247 245 245 245 246
297 297 295 294 292 291 291 290 288 285 282 280 277 275 272 271 270 266 263 261 258 258 257 255 253 251 251 251 250 249 248 248 248 248 247 246 246 246
301 299 297 295 295 295 293 293 292 289 285 281 279 277 275 273 270 268 265 262 259 257 256 256 253 252 251 251 250 250 249 248 248 248 247 247 247 247
304 302 301 300 298 298 296 295 294 291 289 286 283 280 276 273 271 268 265 264 261 259 258 255 254 253 252 252 251 249 249 247 247 247 247 247 247 247
311 307 304 302 302 301 300 297 295 292 290 288 285 282 280 276 273 269 266 265 264 262 259 256 255 254 253 254 252 250 249 249 248 247 248 248 247 246
317 311 306 304 303 303 303 302 298 296 293 291 287 284 281 280 276 272 269 268 267 264 261 258 256 255 255 254 253 252 251 250 250 248 248 248 248 247
321 317 313 310 309 307 306 304 301 300 296 292 289 287 283 281 278 274 271 269 266 264 261 259 258 256 255 255 255 254 254 253 252 250 248 248 248 247
324 322 319 315 312 311 309 305 303 302 299 295 293 290 287 284 281 278 276 272 269 267 264 262 260 259 257 257 256 255 254 252 251 251 250 249 249 249
326 325 321 317 314 312 312 309 306 304 301 297 296 294 290 287 283 279 276 275 272 269 268 265 262 261 260 258 256 255 254 252 251 251 250 250 250 249
327 324 322 320 318 316 315 314 310 307 303 300 297 295 291 288 284 281 278 276 274 271 270 269 266 263 261 260 258 255 254 253 252 251 250 250 249 249
330 326 324 322 321 319 318 317 315 311 306 303 301 299 295 292 288 284 282 280 277 275 272 271 269 267 264 263 260 258 256 254 252 251 249 249 249 248
333 331 329 327 327 326 323 322 319 316 313 309 307 305 302 297 292 288 286 285 281 279 275 273 271 268 266 263 261 259 257 255 252 250 249 249 248 247
338 336 334 332 332 331 330 327 324 322 319 315 311 309 306 303 299 295 292 289 287 284 279 275 273 271 268 265 263 261 259 255 252 250 249 249 248 247
343 340 338 337 336 335 333 332 330 326 324 321 316 314 310 306 304 301 297 295 292 287 282 277 275 271 268 266 263 261 258 254 252 250 249 247 246 245
346 345 343 341 340 339 337 335 333 331 328 324 321 318 315 311 308 307 303 301 297 292 287 283 281 275 269 264 261 258 255 252 251 250 248 245 244 243
349 349 348 345 343 342 341 338 336 333 331 327 324 321 318 315 312 311 309 305 301 298 294 290 285 279 273 266 261 257 254 253 250 247 245 245 244 244
351 351 350 348 346 344 344 343 340 337 334 330 327 324 322 320 319 318 316 312 308 306 302 297 291 283 278 273 266 259 255 253 252 248 246 246 245 243
352 352 352 350 348 347 346 344 342 341 338 335 331 327 324 323 322 321 319 314 312 311 308 302 295 287 279 273 265 260 258 256 252 249 248 247 247 247
353 353 351 351 350 349 348 346 344 342 340 338 336 332 329 326 324 322 319 315 315 314 310 306 301 294 287 277 267 261 258 256 253 251 249 248 249 250
352 352 352 351 351 351 351 349 347 344 342 341 340 337 332 329 328 326 323 319 318 317 315 312 307 300 293 282 271 264 259 257 254 254 254 252 252 252
354 354 353 353 352 353 354 353 350 347 344 343 340 338 335 332 330 328 326 323 323 322 319 315 312 307 299 286 273 265 261 257 256 257 259 258 256 254
Height
5712 5710 5708 5706 5704 5702 5700 5698 5697 5696 5696 5694 5693 5692 5692 5692 5692 5692 5693 5694 5696 5698 5700 5703 5705 5708 5710 5713 5716 5718 5721 5724 5727 5730 5733 5736 5739 5743
5705 5703 5701 5699 5696 5694 5692 5690 5688 5687 5686 5685 5684 5683 5682 5682 5682 5682 5683 5684 5685 5687 5689 5691 5694 5696 5699 5701 5704 5707 5710 5713 5716 5719 5722 5725 5729 5732
5698 5696 5694 5692 5689 5687 5684 5682 5680 5678 5677 5676 5674 5673 5672 5671 5671 5671 5672 5673 5674 5676 5678 5680 5682 5685 5687 5690 5692 5695 5698 5702 5705 5708 5710 5714 5718 5721
5692 5690 5687 5685 5682 5679 5677 5674 5671 5669 5667 5666 5664 5663 5662 5662 5661 5661 5661 5662 5664 5665 5667 5668 5671 5673 5676 5678 5681 5684 5687 5690 5693 5696 5700 5703 5707 5709
5686 5683 5681 5678 5675 5672 5669 5665 5663 5660 5658 5657 5655 5654 5653 5652 5651 5651 5651 5652 5653 5654 5656 5657 5660 5662 5664 5667 5669 5672 5675 5678 5682 5685 5688 5691 5695 5698
5680 5677 5674 5671 5668 5665 5661 5658 5655 5653 5650 5648 5646 5645 5643 5642 5642 5641 5641 5641 5642 5643 5644 5646 5648 5650 5653 5655 5658 5661 5663 5666 5669 5673 5676 5679 5683 5686
5674 5671 5668 5665 5661 5658 5654 5651 5648 5645 5642 5640 5638 5636 5635 5634 5633 5632 5632 5632 5632 5633 5634 5636 5637 5640 5642 5644 5646 5649 5651 5654 5657 5661 5664 5667 5671 5674
5669 5665 5662 5659 5655 5652 5648 5644 5641 5638 5635 5633 5630 5628 5627 5625 5624 5623 5623 5623 5623 5624 5624 5625 5626 5628 5631 5633 5635 5637 5639 5642 5645 5648 5651 5655 5658 5662
5664 5660 5657 5653 5649 5646 5642 5638 5634 5630 5628 5626 5623 5621 5619 5617 5616 5615 5614 5613 5614 5614 5614 5615 5616 5618 5619 5621 5623 5625 5627 5629 5632 5635 5639 5642 5646 5649
5659 5655 5652 5648 5644 5640 5636 5632 5628 5624 5621 5618 5615 5613 5611 5609 5608 5607 5605 5605 5605 5604 5604 5605 5606 5607 5608 5609 5611 5613 5615 5617 5620 5623 5626 5629 5633 5636
5655 5651 5647 5643 5639 5634 5630 5626 5621 5617 5613 5610 5608 5605 5603 5601 5600 5598 5597 5596 5596 5595 5595 5595 5595 5596 5597 5597 5598 5600 5602 5605 5608 5610 5613 5616 5620 5623
5651 5646 5642 5637 5633 5628 5624 5619 5614 5610 5607 5603 5600 5597 5595 5593 5591 5590 5589 5587 5587 5587 5586 5585 5585 5585 5586 5586 5587 5588 5590 5593 5595 5598 5601 5604 5607 5610
5646 5641 5637 5632 5627 5622 5617 5612 5608 5603 5599 5596 5592 5589 5587 5585 5583 5581 5580 5579 5578 5577 5577 5576 5575 5575 5575 5576 5576 5578 5579 5581 5583 5586 5589 5592 5595 5598
5642 5636 5631 5626 5621 5616 5611 5606 5601 5596 5592 5589 5585 5582 5580 5578 5576 5574 5572 5571 5570 5569 5567 5566 5566 5565 5565 5565 5566 5567 5568 5570 5571 5574 5577 5580 5583 5586
5637 5632 5627 5622 5616 5611 5606 5600 5595 5591 5587 5583 5579 5576 5574 5571 5569 5567 5565 5563 5561 5560 5559 5558 5557 5556 5555 5555 5556 5557 5558 5559 5561 5563 5566 5569 5572 5575
5634 5628 5623 5617 5612 5606 5601 5596 5591 5586 5582 5578 5574 5571 5568 5566 5563 5561 5558 5556 5554 5553 5551 5549 5548 5547 5546 5546 5546 5547 5548 5549 5551 5552 5555 5557 5560 5563
5630 5624 5619 5613 5608 5602 5597 5592 5587 5582 5578 5574 5570 5567 5563 5560 5558 5555 5552 5550 5547 5545 5543 5541 5539 5538 5537 5537 5538 5538 5538 5540 5541 5543 5545 5548 5550 5553
5627 5621 5616 5610 5605 5599 5594 5588 5583 5578 5574 5570 5566 5563 5559 5556 5553 5550 5546 5543 5541 5538 5536 5534 5532 5530 5529 5529 5529 5530 5530 5531 5533 5534 5536 5539 5541 5544
5625 5619 5613 5607 5602 5596 5591 5585 5580 5575 5570 5566 5562 5558 5555 5551 5548 5544 5541 5538 5535 5532 5529 5527 5525 5523 5522 5522 5522 5522 5523 5524 5525 5527 5528 5531 5533 5536
5622 5617 5611 5605 5599 5594 5588 5582 5576 5571 5567 5562 5558 5554 5551 5547 5543 5540 5536 5533 5530 5527 5524 5521 5519 5517 5516 5516 5516 5516 5517 5518 5519 5520 5522 5523 5525 5527
5620 5615 5609 5603 5597 5591 5585 5579 5573 5568 5563 5559 5555 5550 5546 5542 5539 5535 5531 5528 5525 5522 5519 5516 5514 5512 5510 5510 5510 5510 5511 5512 5513 5514 5515 5517 5519 5520
5619 5613 5607 5601 5595 5589 5583 5576 5571 5565 5560 5556 5551 5547 5542 5538 5535 5531 5527 5523 5520 5517 5514 5512 5509 5507 5506 5505 5504 5505 5506 5507 5508 5508 5510 5511 5512 5513
5617 5611 5606 5599 5593 5587 5581 5574 5568 5563 5557 5553 5548 5543 5539 5535 5531 5526 5522 5519 5516 5513 5510 5508 5505 5503 5501 5500 5500 5500 5500 5501 5502 5503 5504 5505 5506 5507